This demonstration page uses our WeatherBlox Daily Observations layout. Learn more.

41.55636, -103.73856

Hourly Observations for June 18, 2020

Temp ( °F °C ) Dew Point ( °F °C ) Humidity (%) Winds ( mph kmh ) Pressure ( in mb ) Visibility ( mi km ) Precip ( " mm )
12:58 am 00:58 Clear 83 28.5 45 7.4 26 26 NNE 17 28 29.7 1006 10 16.0934 0 0
1:58 am 01:58 Mostly Cloudy 79 25.9 37 2.7 22 22 N 22 35 29.72 1006 10 16.0934 0 0
2:58 am 02:58 Mostly Cloudy 73 22.9 31 -0.5 21 21 N 22 35 29.77 1008 10 16.0934 0 0
3:58 am 03:58 Mostly Cloudy 69 20.7 31 -0.5 24 24 N 21 33 29.8 1009 10 16.0934 0 0
4:58 am 04:58 Mostly Cloudy 65 18.2 32 -0.2 29 29 NNE 10 17 29.85 1011 10 16.0934 0 0
5:58 am 05:58 Partly Cloudy 64 17.5 28 -2.4 26 26 N 13 20 29.86 1011 10 16.0934 0 0
6:58 am 06:58 Mostly Clear 62 16.8 34 0.9 34 34 N 14 22 29.88 1012 10 16.0934 0 0
7:58 am 07:58 Mostly Cloudy 60 15.7 43 6.1 53 53 N 13 20 29.91 1013 10 16.0934 0 0
8:58 am 08:58 Mostly Cloudy 58 14.5 44 6.5 59 59 NW 12 19 29.94 1014 10 16.0934 0 0
9:58 am 09:58 Mostly Cloudy 55 12.6 40 4.4 58 58 NNW 13 20 29.96 1015 10 16.0934 0 0
10:58 am 10:58 Mostly Cloudy 53 11.9 41 5.2 64 64 NW 17 28 29.98 1015 10 16.0934 0 0
11:58 am 11:58 Mostly Cloudy 52 11.3 38 3.6 59 59 NNW 16 26 30.02 1017 10 16.0934 0 0
12:58 pm 12:58 Mostly Cloudy 52 11.1 37 2.7 57 57 NNW 17 28 30.04 1017 10 16.0934 0 0
1:58 pm 13:58 Partly Cloudy 55 12.8 37 3 52 52 NNW 18 30 30.06 1018 10 16.0934 0 0
2:58 pm 14:58 Sunny 57 14.1 37 2.8 47 47 N 17 28 30.07 1018 10 16.0934 0 0
3:58 pm 15:58 Sunny 60 15.8 37 2.5 41 41 NNW 18 30 30.07 1018 10 16.0934 0 0
4:58 pm 16:58 Sunny 64 17.6 34 1.2 33 33 NNW 18 30 30.06 1018 10 16.0934 0 0
5:58 pm 17:58 Sunny 66 19.1 33 0.8 29 29 NNE 16 26 30.05 1018 10 16.0934 0 0
6:58 pm 18:58 Sunny 69 20.6 34 1 27 27 N 7 11 30.05 1018 10 16.0934 0 0
7:58 pm 19:58 Mostly Sunny 71 21.4 32 0.1 24 24 N 12 19 30.05 1018 10 16.0934 0 0
8:58 pm 20:58 Sunny 71 21.8 34 1.1 25 25 NNE 12 19 30.04 1017 10 16.0934 0 0
9:58 pm 21:58 Sunny 71 21.6 33 0.8 25 25 NE 6 9 30.05 1018 10 16.0934 0 0
10:58 pm 22:58 Sunny 72 22.1 30 -1.2 21 21 NNW 3 6 30.04 1017 10 16.0934 0 0
11:58 pm 23:58 Sunny 73 22.5 29 -1.4 20 20 N 7 11 30.03 1017 10 16.0934 0 0

Powered by AerisWeather